星链-32734 (STARLINK-32734)

导读

STARLINK-32734是美国太空探索技术公司(SpaceX)星链卫星互联网项目的低轨通信卫星,于2024年12月31日发射。作为星链星座组网的一部分,它运行在近地轨道,配备相控阵天线与通信载荷,旨在为全球用户提供高速、低延迟宽带互联网服务,尤其助力偏远地区网络覆盖,推动SpaceX全球互联网络布局进一步完善,增强星座服务能力与覆盖范围。

Basic Information
目录编号:
62476
目录名称:
STARLINK-32734
国际标识:
2024-254Q
轨道中心:
EARTH
卫星名称:
星链-32734
卫星全名:
星链-32734 (STARLINK-32734)
卫星状态:
在轨 (已飞行619 天)
发射日期:
2024-12-31 UTC
国别 :
美国 (US)
星等 :
--
This satellite is enrolled in the Space Conjunction Data Service (SCDS) and the current flight risk assessment level is: High Risk
Orbit Information
数据来源 国际轨道数据
星历时间: 2026-09-10T11:50:42+0800
1天前
查看轨道信息
半长轴: 6861.141km
偏心率: 0.0001394
轨道倾角: 43.002°
近地点辐角 283.222°
升交点赤经 54.724°
平近点角 76.848°
近地点: 482.047km
远地点: 483.961km
周期: 94.266分钟
每日圈数: 15.275953
Detailed Information
固有亮度:
5
最大亮度:
2.5
卫星平台:
Starlink V1.0
覆盖范围:
全球
运营商:
太空探索技术公司
运营商所在国:
美国
制造商(研发单位):
太空探索技术公司
制造商所在国:
美国
使用方式:
暂无
Satellite Introduction
Starlink 计划是 SpaceX 推出的全球卫星互联网项目,通过发射低轨道卫星,为全球尤其是偏远地区提供高速、低延迟的互联网服务。自 2019 年起,Starlink 已部署数千颗卫星,旨在缩小全球数字鸿沟,推动互联网普及。该项目还为军事、航空等行业提供通信支持,带来广泛经济效益。
2D Orbit Map
3D Orbit Map
Orbit Altitude Analysis Chart
Orbit Inclination Analysis Chart
Orbit Comprehensive Analysis Chart
View Comprehensive Chart
Conjunction Data List
Event ID Objects TCA Miss Dist (km) Collision Risk Probability Collision Risk Index (CRI) Action
CDM_260911-145505-850806-247621
2026-09-11T
14:55:33+0000
0.350 km
远距离
2.939547E-4 高风险 0.84
CDM_260912-235906-162206-247621
2026-09-12T
23:59:02+0000
0.673 km
远距离
7.257612E-5 中风险 0.72
CDM_260912-004705-987606-247621
2026-09-12T
00:47:04+0000
0.720 km
远距离
5.125319E-5 中风险 0.69
CDM_260910-031605-987606-247622
2026-09-10T
03:16:32+0000
0.842 km
远距离
3.114219E-5 中风险 0.65
CDM_260909-234105-850806-247621
2026-09-09T
23:41:38+0000
1.068 km
极远距离
1.350102E-5 中风险 0.58
CDM_260912-055005-850806-247621
2026-09-12T
05:50:01+0000
1.102 km
极远距离
1.210698E-5 中风险 0.57
CDM_260912-140705-987606-247621
2026-09-12T
14:07:22+0000
1.350 km
极远距离
6.188408E-6 低风险 0.51
CDM_260911-231205-987606-247621
2026-09-11T
23:12:54+0000
1.601 km
极远距离
3.567257E-6 低风险 0.46
CDM_260910-011505-850806-247621
2026-09-10T
01:15:47+0000
1.601 km
极远距离
3.493263E-6 低风险 0.46
CDM_260911-132105-850806-247621
2026-09-11T
13:21:24+0000
1.602 km
极远距离
3.488033E-6 低风险 0.46
Miss Distance Evolution Trend with All Objects
Collision Probability Evolution Trend with All Objects